Salina, KS

10:14 PM CDT on April 22, 2018 (GMT -0500)
Salina Municipal

Weather History for KSLN - September, 2012

Change the Weather History Date:

Monday, September 3, 2012

  Actual Average Record
Temperature  
Mean Temperature 87 °F 76 °F  
Max Temperature 102 °F 87 °F 108 °F (1947)
Min Temperature 72 °F 64 °F 41 °F (1905)
Degree Days  
Heating Degree Days 0 0  
Month to date heating degree days 0 0  
Since 1 July heating degree days 0 1  
Cooling Degree Days 22 11  
Month to date cooling degree days 56 33  
Year to date cooling degree days 1934 1440  
Growing Degree Days 36 (Base 50)    
Moisture  
Dew Point 66 °F    
Average Humidity 54    
Maximum Humidity 79    
Minimum Humidity 29    
Precipitation  
Precipitation 0.12 in 0.10 in 4.82 in (1967)
Month to date precipitation 0.12 0.30  
Year to date precipitation 14.45 24.64  
Sea Level Pressure  
Sea Level Pressure 29.81 in    
Wind  
Wind Speed 7 mph (NE)    
Max Wind Speed 24 mph    
Max Gust Speed 30 mph    
Visibility 10 miles    
Events Thunderstorm    
T = Trace of Precipitation, MM = Missing Value Source: NWS Daily Summary

Daily Weather History Graph

Daily Weather History Graph

Search for Another Location

Airport or City:

Astronomy

Sep. 03, 2012 Rise Set
Actual Time 7:01 AM CDT 7:56 PM CDT
Civil Twilight 6:34 AM CDT 8:24 PM CDT
Nautical Twilight 6:02 AM CDT 8:56 PM CDT
Astronomical Twilight 5:29 AM CDT 9:29 PM CDT
Moon 9:19 PM CDT (9/3) 10:08 AM CDT (9/3)
Length of Visible Light 13h 49m
Length of Day
12h 55m
Waning Gibbous, 90% of the Moon is Illuminated
Sep 3
Waning Gibbous
Sep 8
Last Quarter
Sep 15
New
Sep 22
First Quarter
Sep 29
Full

Hourly Weather History & Observations

Time (CDT) Temp. Heat Index Dew Point Humidity Pressure Visibility Wind Dir Wind Speed Gust Speed Precip Events Conditions
12:53 AM 82.0 °F 84.1 °F 66.0 °F 58% 29.81 in 10.0 mi SSE 12.7 mph - N/A   Clear
1:53 AM 80.1 °F 82.3 °F 66.9 °F 64% 29.81 in 10.0 mi SE 10.4 mph - N/A   Clear
2:53 AM 75.9 °F - 66.9 °F 74% 29.81 in 10.0 mi SSE 6.9 mph - N/A   Clear
3:53 AM 75.9 °F - 66.9 °F 74% 29.82 in 10.0 mi SSE 9.2 mph - N/A   Clear
4:53 AM 73.9 °F - 66.9 °F 79% 29.82 in 10.0 mi SSE 6.9 mph - N/A   Clear
5:53 AM 73.0 °F - 66.0 °F 79% 29.82 in 10.0 mi SSE 4.6 mph - N/A   Clear
6:53 AM 73.9 °F - 66.0 °F 76% 29.82 in 10.0 mi ESE 3.5 mph - N/A   Clear
7:53 AM 73.9 °F - 66.0 °F 76% 29.82 in 10.0 mi SSE 9.2 mph - N/A   Clear
8:53 AM 80.1 °F 81.9 °F 64.9 °F 60% 29.82 in 10.0 mi South 6.9 mph - N/A   Clear
9:53 AM 87.1 °F 88.3 °F 64.0 °F 46% 29.83 in 10.0 mi SW 8.1 mph - N/A   Clear
10:53 AM 93.0 °F 94.2 °F 63.0 °F 37% 29.83 in 10.0 mi West 9.2 mph - N/A   Clear
11:53 AM 96.1 °F 98.3 °F 64.0 °F 35% 29.83 in 10.0 mi NNW 3.5 mph - N/A   Clear
12:53 PM 98.1 °F 99.6 °F 63.0 °F 31% 29.82 in 10.0 mi West 3.5 mph - N/A   Clear
1:53 PM 100.0 °F 103.0 °F 64.0 °F 31% 29.81 in 10.0 mi Calm Calm - N/A   Clear
2:53 PM 100.9 °F 102.7 °F 62.1 °F 28% 29.78 in 10.0 mi ENE 4.6 mph - N/A   Clear
3:53 PM 100.9 °F 104.0 °F 64.0 °F 30% 29.76 in 10.0 mi NNE 10.4 mph - N/A   Scattered Clouds
4:53 PM 99.0 °F 102.9 °F 66.0 °F 34% 29.76 in 10.0 mi NNE 11.5 mph - N/A   Scattered Clouds
5:53 PM 97.0 °F 99.3 °F 64.0 °F 34% 29.77 in 10.0 mi North 12.7 mph - N/A   Clear
6:53 PM 95.0 °F 97.9 °F 66.0 °F 38% 29.78 in 10.0 mi NNE 11.5 mph - N/A   Clear
7:53 PM 90.0 °F 92.8 °F 66.9 °F 46% 29.80 in 10.0 mi North 9.2 mph - N/A   Scattered Clouds
8:53 PM 87.1 °F 89.9 °F 66.9 °F 51% 29.80 in 10.0 mi NNW 6.9 mph - N/A   Clear
9:53 PM 82.9 °F 86.5 °F 69.1 °F 63% 29.81 in 10.0 mi North 6.9 mph - N/A   Clear
10:53 PM 81.0 °F 84.4 °F 70.0 °F 69% 29.81 in 10.0 mi NNW 5.8 mph - N/A   Clear
11:51 PM 80.6 °F 84.6 °F 71.6 °F 74% 29.85 in 10.0 mi NNE 4.6 mph - N/A Thunderstorm Clear
11:53 PM 81.0 °F 84.9 °F 71.1 °F 72% 29.80 in 9.0 mi NNE 3.5 mph - N/A Thunderstorm Clear